Year,Month,Day,Hour,Minute,Value (Times are PST for barometer in hPa)
2016,10,14,00,00,983.04
2016,10,14,00,01,983.01
2016,10,14,00,02,983.07
2016,10,14,00,03,983.08
2016,10,14,00,04,983.24
2016,10,14,00,05,983.31
2016,10,14,00,06,983.34
2016,10,14,00,07,983.43
2016,10,14,00,08,983.26
2016,10,14,00,09,983.14
2016,10,14,00,10,983.05
2016,10,14,00,11,983.21
2016,10,14,00,12,983.48
2016,10,14,00,13,983.43
2016,10,14,00,14,983.21
2016,10,14,00,15,983.35
2016,10,14,00,16,983.47
2016,10,14,00,17,983.27
2016,10,14,00,18,983.31
2016,10,14,00,19,983.27
2016,10,14,00,20,983.32
2016,10,14,00,21,983.44
2016,10,14,00,22,983.44
2016,10,14,00,23,983.44
2016,10,14,00,24,983.48
2016,10,14,00,25,983.58
2016,10,14,00,26,983.61
2016,10,14,00,27,983.64
2016,10,14,00,28,983.64
2016,10,14,00,29,983.54
2016,10,14,00,30,983.54
2016,10,14,00,31,983.61
2016,10,14,00,32,983.64
2016,10,14,00,33,983.58
2016,10,14,00,34,983.68
2016,10,14,00,35,983.64
2016,10,14,00,36,983.64
2016,10,14,00,37,983.71
2016,10,14,00,38,983.78
2016,10,14,00,39,983.84
2016,10,14,00,40,983.76
2016,10,14,00,41,983.85
2016,10,14,00,42,983.89
2016,10,14,00,43,984.08
2016,10,14,00,44,983.97
2016,10,14,00,45,983.88
2016,10,14,00,46,983.92
2016,10,14,00,47,983.96
2016,10,14,00,48,984.05
2016,10,14,00,49,984.02
2016,10,14,00,50,984.02
2016,10,14,00,51,984.15
2016,10,14,00,52,984.08
2016,10,14,00,53,984.12
2016,10,14,00,54,984.19
2016,10,14,00,55,984.19
2016,10,14,00,56,984.16
2016,10,14,00,57,984.29
2016,10,14,00,58,984.39
2016,10,14,00,59,984.36
2016,10,14,01,00,984.42
2016,10,14,01,01,984.42
2016,10,14,01,02,984.42
2016,10,14,01,03,984.46
2016,10,14,01,04,984.53
2016,10,14,01,05,984.46
2016,10,14,01,06,984.42
2016,10,14,01,07,984.46
2016,10,14,01,08,984.46
2016,10,14,01,09,984.36
2016,10,14,01,10,984.39
2016,10,14,01,11,984.42
2016,10,14,01,12,984.39
2016,10,14,01,13,984.46
2016,10,14,01,14,984.53
2016,10,14,01,15,984.53
2016,10,14,01,16,984.59
2016,10,14,01,17,984.63
2016,10,14,01,18,984.59
2016,10,14,01,19,984.59
2016,10,14,01,20,984.66
2016,10,14,01,21,984.67
2016,10,14,01,22,984.79
2016,10,14,01,23,984.69
2016,10,14,01,24,984.73
2016,10,14,01,25,984.69
2016,10,14,01,26,984.69
2016,10,14,01,27,984.63
2016,10,14,01,28,984.59
2016,10,14,01,29,984.56
2016,10,14,01,30,984.52
2016,10,14,01,31,984.39
2016,10,14,01,32,984.39
2016,10,14,01,33,984.32
2016,10,14,01,34,984.22
2016,10,14,01,35,984.22
2016,10,14,01,36,984.15
2016,10,14,01,37,984.07
2016,10,14,01,38,983.92
2016,10,14,01,39,983.98
2016,10,14,01,40,983.97
2016,10,14,01,41,983.88
2016,10,14,01,42,983.98
2016,10,14,01,43,983.98
2016,10,14,01,44,984.02
2016,10,14,01,45,984.05
2016,10,14,01,46,984.05
2016,10,14,01,47,984.02
2016,10,14,01,48,984.02
2016,10,14,01,49,983.92
2016,10,14,01,50,983.98
2016,10,14,01,51,983.98
2016,10,14,01,52,983.96
2016,10,14,01,53,984.08
2016,10,14,01,54,984.15
2016,10,14,01,55,984.08
2016,10,14,01,56,984.09
2016,10,14,01,57,984.29
2016,10,14,01,58,984.36
2016,10,14,01,59,984.42
2016,10,14,02,00,984.49
2016,10,14,02,01,984.42
2016,10,14,02,02,984.40
2016,10,14,02,03,984.54
2016,10,14,02,04,984.66
2016,10,14,02,05,984.69
2016,10,14,02,06,984.66
2016,10,14,02,07,984.66
2016,10,14,02,08,984.59
2016,10,14,02,09,984.53
2016,10,14,02,10,984.53
2016,10,14,02,11,984.59
2016,10,14,02,12,984.53
2016,10,14,02,13,984.63
2016,10,14,02,14,984.66
2016,10,14,02,15,984.74
2016,10,14,02,16,984.90
2016,10,14,02,17,984.97
2016,10,14,02,18,985.03
2016,10,14,02,19,985.01
2016,10,14,02,20,985.20
2016,10,14,02,21,985.21
2016,10,14,02,22,985.30
2016,10,14,02,23,985.34
2016,10,14,02,24,985.34
2016,10,14,02,25,985.34
2016,10,14,02,26,985.30
2016,10,14,02,27,985.25
2016,10,14,02,28,985.44
2016,10,14,02,29,985.44
2016,10,14,02,30,985.65
2016,10,14,02,31,985.78
2016,10,14,02,32,985.85
2016,10,14,02,33,985.91
2016,10,14,02,34,985.88
2016,10,14,02,35,985.95
2016,10,14,02,36,985.91
2016,10,14,02,37,985.98
2016,10,14,02,38,986.15
2016,10,14,02,39,986.15
2016,10,14,02,40,986.22
2016,10,14,02,41,986.18
2016,10,14,02,42,986.22
2016,10,14,02,43,986.15
2016,10,14,02,44,986.16
2016,10,14,02,45,986.34
2016,10,14,02,46,986.22
2016,10,14,02,47,986.32
2016,10,14,02,48,986.51
2016,10,14,02,49,986.40
2016,10,14,02,50,986.56
2016,10,14,02,51,986.62
2016,10,14,02,52,986.58
2016,10,14,02,53,986.85
2016,10,14,02,54,986.59
2016,10,14,02,55,986.52
2016,10,14,02,56,986.56
2016,10,14,02,57,986.56
2016,10,14,02,58,986.62
2016,10,14,02,59,986.69
2016,10,14,03,00,986.79
2016,10,14,03,01,986.77
2016,10,14,03,02,986.86
2016,10,14,03,03,986.93
2016,10,14,03,04,987.03
2016,10,14,03,05,987.03
2016,10,14,03,06,987.10
2016,10,14,03,07,987.17
2016,10,14,03,08,987.21
2016,10,14,03,09,987.30
2016,10,14,03,10,987.27
2016,10,14,03,11,987.27
2016,10,14,03,12,987.23
2016,10,14,03,13,987.20
2016,10,14,03,14,987.28
2016,10,14,03,15,987.37
2016,10,14,03,16,987.40
2016,10,14,03,17,987.40
2016,10,14,03,18,987.44
2016,10,14,03,19,987.37
2016,10,14,03,20,987.37
2016,10,14,03,21,987.34
2016,10,14,03,22,987.27
2016,10,14,03,23,987.30
2016,10,14,03,24,987.34
2016,10,14,03,25,987.34
2016,10,14,03,26,987.34
2016,10,14,03,27,987.44
2016,10,14,03,28,987.47
2016,10,14,03,29,987.54
2016,10,14,03,30,987.51
2016,10,14,03,31,987.57
2016,10,14,03,32,987.67
2016,10,14,03,33,987.78
2016,10,14,03,34,987.89
2016,10,14,03,35,988.01
2016,10,14,03,36,988.08
2016,10,14,03,37,988.01
2016,10,14,03,38,987.98
2016,10,14,03,39,987.91
2016,10,14,03,40,987.78
2016,10,14,03,41,987.74
2016,10,14,03,42,987.67
2016,10,14,03,43,987.61
2016,10,14,03,44,987.61
2016,10,14,03,45,987.54
2016,10,14,03,46,987.54
2016,10,14,03,47,987.57
2016,10,14,03,48,987.61
2016,10,14,03,49,987.54
2016,10,14,03,50,987.58
2016,10,14,03,51,987.67
2016,10,14,03,52,987.67
2016,10,14,03,53,987.67
2016,10,14,03,54,987.67
2016,10,14,03,55,987.67
2016,10,14,03,56,987.71
2016,10,14,03,57,987.71
2016,10,14,03,58,987.57
2016,10,14,03,59,987.44
2016,10,14,04,00,987.44
2016,10,14,04,01,987.44
2016,10,14,04,02,987.47
2016,10,14,04,03,987.44
2016,10,14,04,04,987.37
2016,10,14,04,05,987.30
2016,10,14,04,06,987.34
2016,10,14,04,07,987.44
2016,10,14,04,08,987.54
2016,10,14,04,09,987.54
2016,10,14,04,10,987.51
2016,10,14,04,11,987.40
2016,10,14,04,12,987.37
2016,10,14,04,13,987.44
2016,10,14,04,14,987.47
2016,10,14,04,15,987.34
2016,10,14,04,16,987.30
2016,10,14,04,17,987.30
2016,10,14,04,18,987.34
2016,10,14,04,19,987.30
2016,10,14,04,20,987.23
2016,10,14,04,21,987.17
2016,10,14,04,22,987.06
2016,10,14,04,23,987.13
2016,10,14,04,24,987.13
2016,10,14,04,25,987.17
2016,10,14,04,26,987.10
2016,10,14,04,27,986.96
2016,10,14,04,28,986.96
2016,10,14,04,29,986.90
2016,10,14,04,30,986.96
2016,10,14,04,31,987.06
2016,10,14,04,32,987.13
2016,10,14,04,33,987.13
2016,10,14,04,34,987.06
2016,10,14,04,35,987.06
2016,10,14,04,36,987.00
2016,10,14,04,37,986.90
2016,10,14,04,38,986.96
2016,10,14,04,39,986.97
2016,10,14,04,40,987.06
2016,10,14,04,41,987.03
2016,10,14,04,42,986.92
2016,10,14,04,43,986.83
2016,10,14,04,44,986.83
2016,10,14,04,45,986.83
2016,10,14,04,46,986.83
2016,10,14,04,47,986.76
2016,10,14,04,48,986.83
2016,10,14,04,49,986.86
2016,10,14,04,50,986.86
2016,10,14,04,51,986.93
2016,10,14,04,52,987.00
2016,10,14,04,53,987.03
2016,10,14,04,54,987.03
2016,10,14,04,55,987.03
2016,10,14,04,56,987.00
2016,10,14,04,57,986.96
2016,10,14,04,58,986.86
2016,10,14,04,59,986.86
2016,10,14,05,00,986.86
2016,10,14,05,01,986.90
2016,10,14,05,02,986.83
2016,10,14,05,03,986.79
2016,10,14,05,04,986.83
2016,10,14,05,05,986.83
2016,10,14,05,06,986.86
2016,10,14,05,07,986.93
2016,10,14,05,08,986.96
2016,10,14,05,09,987.03
2016,10,14,05,10,987.10
2016,10,14,05,11,987.06
2016,10,14,05,12,987.10
2016,10,14,05,13,987.17
2016,10,14,05,14,987.17
2016,10,14,05,15,987.20
2016,10,14,05,16,987.20
2016,10,14,05,17,987.17
2016,10,14,05,18,987.17
2016,10,14,05,19,987.13
2016,10,14,05,20,987.16
2016,10,14,05,21,987.06
2016,10,14,05,22,987.10
2016,10,14,05,23,987.10
2016,10,14,05,24,987.13
2016,10,14,05,25,987.17
2016,10,14,05,26,987.20
2016,10,14,05,27,987.27
2016,10,14,05,28,987.30
2016,10,14,05,29,987.37
2016,10,14,05,30,987.37
2016,10,14,05,31,987.30
2016,10,14,05,32,987.36
2016,10,14,05,33,987.20
2016,10,14,05,34,987.00
2016,10,14,05,35,986.86
2016,10,14,05,36,986.86
2016,10,14,05,37,986.86
2016,10,14,05,38,986.83
2016,10,14,05,39,986.79
2016,10,14,05,40,986.79
2016,10,14,05,41,986.90
2016,10,14,05,42,986.93
2016,10,14,05,43,986.96
2016,10,14,05,44,987.03
2016,10,14,05,45,987.10
2016,10,14,05,46,987.13
2016,10,14,05,47,987.06
2016,10,14,05,48,987.00
2016,10,14,05,49,986.96
2016,10,14,05,50,986.86
2016,10,14,05,51,986.86
2016,10,14,05,52,986.90
2016,10,14,05,53,986.83
2016,10,14,05,54,986.86
2016,10,14,05,55,986.93
2016,10,14,05,56,986.90
2016,10,14,05,57,987.00
2016,10,14,05,58,987.03
2016,10,14,05,59,986.96
2016,10,14,06,00,987.00
2016,10,14,06,01,986.93
2016,10,14,06,02,986.90
2016,10,14,06,03,986.90
2016,10,14,06,04,986.90
2016,10,14,06,05,987.00
2016,10,14,06,06,987.03
2016,10,14,06,07,987.06
2016,10,14,06,08,987.06
2016,10,14,06,09,987.20
2016,10,14,06,10,987.23
2016,10,14,06,11,987.27
2016,10,14,06,12,987.30
2016,10,14,06,13,987.34
2016,10,14,06,14,987.37
2016,10,14,06,15,987.40
2016,10,14,06,16,987.44
2016,10,14,06,17,987.40
2016,10,14,06,18,987.51
2016,10,14,06,19,987.54
2016,10,14,06,20,987.54
2016,10,14,06,21,987.61
2016,10,14,06,22,987.51
2016,10,14,06,23,987.52
2016,10,14,06,24,987.61
2016,10,14,06,25,987.67
2016,10,14,06,26,987.67
2016,10,14,06,27,987.78
2016,10,14,06,28,987.78
2016,10,14,06,29,987.74
2016,10,14,06,30,987.78
2016,10,14,06,31,987.74
2016,10,14,06,32,987.67
2016,10,14,06,33,987.71
2016,10,14,06,34,987.74
2016,10,14,06,35,987.78
2016,10,14,06,36,987.81
2016,10,14,06,37,987.81
2016,10,14,06,38,987.88
2016,10,14,06,39,987.78
2016,10,14,06,40,987.81
2016,10,14,06,41,987.78
2016,10,14,06,42,987.74
2016,10,14,06,43,987.67
2016,10,14,06,44,987.67
2016,10,14,06,45,987.64
2016,10,14,06,46,987.67
2016,10,14,06,47,987.57
2016,10,14,06,48,987.61
2016,10,14,06,49,987.45
2016,10,14,06,50,987.44
2016,10,14,06,51,987.37
2016,10,14,06,52,987.37
2016,10,14,06,53,987.30
2016,10,14,06,54,987.34
2016,10,14,06,55,987.34
2016,10,14,06,56,987.23
2016,10,14,06,57,987.22
2016,10,14,06,58,987.13
2016,10,14,06,59,987.17
2016,10,14,07,00,987.17
2016,10,14,07,01,987.13
2016,10,14,07,02,987.13
2016,10,14,07,03,987.10
2016,10,14,07,04,987.03
2016,10,14,07,05,987.10
2016,10,14,07,06,987.06
2016,10,14,07,07,987.10
2016,10,14,07,08,987.23
2016,10,14,07,09,987.13
2016,10,14,07,10,987.17
2016,10,14,07,11,987.17
2016,10,14,07,12,987.23
2016,10,14,07,13,987.27
2016,10,14,07,14,987.27
2016,10,14,07,15,987.27
2016,10,14,07,16,987.23
2016,10,14,07,17,987.27
2016,10,14,07,18,987.23
2016,10,14,07,19,987.30
2016,10,14,07,20,987.27
2016,10,14,07,21,987.23
2016,10,14,07,22,987.30
2016,10,14,07,23,987.21
2016,10,14,07,24,987.20
2016,10,14,07,25,987.20
2016,10,14,07,26,987.17
2016,10,14,07,27,987.20
2016,10,14,07,28,987.20
2016,10,14,07,29,987.17
2016,10,14,07,30,987.23
2016,10,14,07,31,987.27
2016,10,14,07,32,987.17
2016,10,14,07,33,987.13
2016,10,14,07,34,987.17
2016,10,14,07,35,987.17
2016,10,14,07,36,987.17
2016,10,14,07,37,987.23
2016,10,14,07,38,987.17
2016,10,14,07,39,987.17
2016,10,14,07,40,987.02
2016,10,14,07,41,986.86
2016,10,14,07,42,986.79
2016,10,14,07,43,986.83
2016,10,14,07,44,986.90
2016,10,14,07,45,986.86
2016,10,14,07,46,986.86
2016,10,14,07,47,986.93
2016,10,14,07,48,986.96
2016,10,14,07,49,986.96
2016,10,14,07,50,986.90
2016,10,14,07,51,986.86
2016,10,14,07,52,986.79
2016,10,14,07,53,986.76
2016,10,14,07,54,986.76
2016,10,14,07,55,986.76
2016,10,14,07,56,986.79
2016,10,14,07,57,986.79
2016,10,14,07,58,986.79
2016,10,14,07,59,986.79
2016,10,14,08,00,986.79
2016,10,14,08,01,986.90
2016,10,14,08,02,986.96
2016,10,14,08,03,986.96
2016,10,14,08,04,987.00
2016,10,14,08,05,987.03
2016,10,14,08,06,987.06
2016,10,14,08,07,987.13
2016,10,14,08,08,987.20
2016,10,14,08,09,987.27
2016,10,14,08,10,987.34
2016,10,14,08,11,987.38
2016,10,14,08,12,987.47
2016,10,14,08,13,987.51
2016,10,14,08,14,987.61
2016,10,14,08,15,987.57
2016,10,14,08,16,987.64
2016,10,14,08,17,987.61
2016,10,14,08,18,987.71
2016,10,14,08,19,987.74
2016,10,14,08,20,987.78
2016,10,14,08,21,987.78
2016,10,14,08,22,987.78
2016,10,14,08,23,987.78
2016,10,14,08,24,987.67
2016,10,14,08,25,987.61
2016,10,14,08,26,987.60
2016,10,14,08,27,987.51
2016,10,14,08,28,987.44
2016,10,14,08,29,987.44
2016,10,14,08,30,987.37
2016,10,14,08,31,987.17
2016,10,14,08,32,987.13
2016,10,14,08,33,987.06
2016,10,14,08,34,987.14
2016,10,14,08,35,987.23
2016,10,14,08,36,987.27
2016,10,14,08,37,987.10
2016,10,14,08,38,987.20
2016,10,14,08,39,987.23
2016,10,14,08,40,987.23
2016,10,14,08,41,987.20
2016,10,14,08,42,987.23
2016,10,14,08,43,987.23
2016,10,14,08,44,987.20
2016,10,14,08,45,987.23
2016,10,14,08,46,987.20
2016,10,14,08,47,987.27
2016,10,14,08,48,987.23
2016,10,14,08,49,987.34
2016,10,14,08,50,987.30
2016,10,14,08,51,987.30
2016,10,14,08,52,987.40
2016,10,14,08,53,987.34
2016,10,14,08,54,987.34
2016,10,14,08,55,987.30
2016,10,14,08,56,987.10
2016,10,14,08,57,987.13
2016,10,14,08,58,987.13
2016,10,14,08,59,987.20
2016,10,14,09,00,987.20
2016,10,14,09,01,987.20
2016,10,14,09,02,987.17
2016,10,14,09,03,987.17
2016,10,14,09,04,987.20
2016,10,14,09,05,987.23
2016,10,14,09,06,987.29
2016,10,14,09,07,987.27
2016,10,14,09,08,987.27
2016,10,14,09,09,987.23
2016,10,14,09,10,987.20
2016,10,14,09,11,987.20
2016,10,14,09,12,987.20
2016,10,14,09,13,987.27
2016,10,14,09,14,987.17
2016,10,14,09,15,987.17
2016,10,14,09,16,987.06
2016,10,14,09,17,987.06
2016,10,14,09,18,987.06
2016,10,14,09,19,986.96
2016,10,14,09,20,986.86
2016,10,14,09,21,986.83
2016,10,14,09,22,986.69
2016,10,14,09,23,986.69
2016,10,14,09,24,986.62
2016,10,14,09,25,986.59
2016,10,14,09,26,986.62
2016,10,14,09,27,986.69
2016,10,14,09,28,986.66
2016,10,14,09,29,986.69
2016,10,14,09,30,986.66
2016,10,14,09,31,986.62
2016,10,14,09,32,986.62
2016,10,14,09,33,986.61
2016,10,14,09,34,986.42
2016,10,14,09,35,986.32
2016,10,14,09,36,986.35
2016,10,14,09,37,986.32
2016,10,14,09,38,986.25
2016,10,14,09,39,986.35
2016,10,14,09,40,986.35
2016,10,14,09,41,986.42
2016,10,14,09,42,986.35
2016,10,14,09,43,986.32
2016,10,14,09,44,986.39
2016,10,14,09,45,986.29
2016,10,14,09,46,986.29
2016,10,14,09,47,986.25
2016,10,14,09,48,986.32
2016,10,14,09,49,986.15
2016,10,14,09,50,986.18
2016,10,14,09,51,986.08
2016,10,14,09,52,986.02
2016,10,14,09,53,985.91
2016,10,14,09,54,986.05
2016,10,14,09,55,986.02
2016,10,14,09,56,985.91
2016,10,14,09,57,985.91
2016,10,14,09,58,985.95
2016,10,14,09,59,985.88
2016,10,14,10,00,985.95
2016,10,14,10,01,985.91
2016,10,14,10,02,985.98
2016,10,14,10,03,986.08
2016,10,14,10,04,985.98
2016,10,14,10,05,986.05
2016,10,14,10,06,986.05
2016,10,14,10,07,985.88
2016,10,14,10,08,985.88
2016,10,14,10,09,985.85
2016,10,14,10,10,985.81
2016,10,14,10,11,985.95
2016,10,14,10,12,985.81
2016,10,14,10,13,985.88
2016,10,14,10,14,986.02
2016,10,14,10,15,985.98
2016,10,14,10,16,985.88
2016,10,14,10,17,985.91
2016,10,14,10,18,985.85
2016,10,14,10,19,985.91
2016,10,14,10,20,985.78
2016,10,14,10,21,985.95
2016,10,14,10,22,985.87
2016,10,14,10,23,985.71
2016,10,14,10,24,985.94
2016,10,14,10,25,985.82
2016,10,14,10,26,985.98
2016,10,14,10,27,985.88
2016,10,14,10,28,985.91
2016,10,14,10,29,985.88
2016,10,14,10,30,985.75
2016,10,14,10,31,985.88
2016,10,14,10,32,985.87
2016,10,14,10,33,985.74
2016,10,14,10,34,985.88
2016,10,14,10,35,985.78
2016,10,14,10,36,985.78
2016,10,14,10,37,985.74
2016,10,14,10,38,985.78
2016,10,14,10,39,985.78
2016,10,14,10,40,985.68
2016,10,14,10,41,985.71
2016,10,14,10,42,985.68
2016,10,14,10,43,985.61
2016,10,14,10,44,985.64
2016,10,14,10,45,985.64
2016,10,14,10,46,985.64
2016,10,14,10,47,985.74
2016,10,14,10,48,985.57
2016,10,14,10,49,985.51
2016,10,14,10,50,985.74
2016,10,14,10,51,985.71
2016,10,14,10,52,985.44
2016,10,14,10,53,985.56
2016,10,14,10,54,985.44
2016,10,14,10,55,985.41
2016,10,14,10,56,985.41
2016,10,14,10,57,985.41
2016,10,14,10,58,985.37
2016,10,14,10,59,985.47
2016,10,14,11,00,985.34
2016,10,14,11,01,985.54
2016,10,14,11,02,985.41
2016,10,14,11,03,985.37
2016,10,14,11,04,985.37
2016,10,14,11,05,985.21
2016,10,14,11,06,985.24
2016,10,14,11,07,985.30
2016,10,14,11,08,985.34
2016,10,14,11,09,985.00
2016,10,14,11,10,985.20
2016,10,14,11,11,985.10
2016,10,14,11,12,985.07
2016,10,14,11,13,985.03
2016,10,14,11,14,985.07
2016,10,14,11,15,985.03
2016,10,14,11,16,985.03
2016,10,14,11,17,985.03
2016,10,14,11,18,985.03
2016,10,14,11,19,985.00
2016,10,14,11,20,985.03
2016,10,14,11,21,984.97
2016,10,14,11,22,985.03
2016,10,14,11,23,985.00
2016,10,14,11,24,984.93
2016,10,14,11,25,985.10
2016,10,14,11,26,985.00
2016,10,14,11,27,984.97
2016,10,14,11,28,984.91
2016,10,14,11,29,984.97
2016,10,14,11,30,984.97
2016,10,14,11,31,984.90
2016,10,14,11,32,984.86
2016,10,14,11,33,984.90
2016,10,14,11,34,984.76
2016,10,14,11,35,984.76
2016,10,14,11,36,984.73
2016,10,14,11,37,984.73
2016,10,14,11,38,984.53
2016,10,14,11,39,984.49
2016,10,14,11,40,984.56
2016,10,14,11,41,984.46
2016,10,14,11,42,984.42
2016,10,14,11,43,984.47
2016,10,14,11,44,984.66
2016,10,14,11,45,984.49
2016,10,14,11,46,984.53
2016,10,14,11,47,984.63
2016,10,14,11,48,984.56
2016,10,14,11,49,984.49
2016,10,14,11,50,984.53
2016,10,14,11,51,984.76
2016,10,14,11,52,984.59
2016,10,14,11,53,984.59
2016,10,14,11,54,984.73
2016,10,14,11,55,984.76
2016,10,14,11,56,984.69
2016,10,14,11,57,984.63
2016,10,14,11,58,984.73
2016,10,14,11,59,984.59
2016,10,14,12,00,984.59
2016,10,14,12,01,984.75
2016,10,14,12,02,984.66
2016,10,14,12,03,984.76
2016,10,14,12,04,984.66
2016,10,14,12,05,984.53
2016,10,14,12,06,984.59
2016,10,14,12,07,984.59
2016,10,14,12,08,984.66
2016,10,14,12,09,984.59
2016,10,14,12,10,984.42
2016,10,14,12,11,984.46
2016,10,14,12,12,984.46
2016,10,14,12,13,984.23
2016,10,14,12,14,984.25
2016,10,14,12,15,984.22
2016,10,14,12,16,984.08
2016,10,14,12,17,983.98
2016,10,14,12,18,984.02
2016,10,14,12,19,984.05
2016,10,14,12,20,984.08
2016,10,14,12,21,984.12
2016,10,14,12,22,984.12
2016,10,14,12,23,984.03
2016,10,14,12,24,984.21
2016,10,14,12,25,984.08
2016,10,14,12,26,984.02
2016,10,14,12,27,983.98
2016,10,14,12,28,984.08
2016,10,14,12,29,983.98
2016,10,14,12,30,984.08
2016,10,14,12,31,984.08
2016,10,14,12,32,983.98
2016,10,14,12,33,983.98
2016,10,14,12,34,984.11
2016,10,14,12,35,984.15
2016,10,14,12,36,983.95
2016,10,14,12,37,984.08
2016,10,14,12,38,983.92
2016,10,14,12,39,983.78
2016,10,14,12,40,983.80
2016,10,14,12,41,983.58
2016,10,14,12,42,983.64
2016,10,14,12,43,983.54
2016,10,14,12,44,983.68
2016,10,14,12,45,983.75
2016,10,14,12,46,983.71
2016,10,14,12,47,983.64
2016,10,14,12,48,983.68
2016,10,14,12,49,983.61
2016,10,14,12,50,983.68
2016,10,14,12,51,983.71
2016,10,14,12,52,983.85
2016,10,14,12,53,983.88
2016,10,14,12,54,983.89
2016,10,14,12,55,984.15
2016,10,14,12,56,983.98
2016,10,14,12,57,984.08
2016,10,14,12,58,984.05
2016,10,14,12,59,983.98
2016,10,14,13,00,983.88
2016,10,14,13,01,984.02
2016,10,14,13,02,983.81
2016,10,14,13,03,983.75
2016,10,14,13,04,983.64
2016,10,14,13,05,983.78
2016,10,14,13,06,983.75
2016,10,14,13,07,983.51
2016,10,14,13,08,983.64
2016,10,14,13,09,983.64
2016,10,14,13,10,983.78
2016,10,14,13,11,983.92
2016,10,14,13,12,984.08
2016,10,14,13,13,984.02
2016,10,14,13,14,984.08
2016,10,14,13,15,984.22
2016,10,14,13,16,984.25
2016,10,14,13,17,984.12
2016,10,14,13,18,984.19
2016,10,14,13,19,984.19
2016,10,14,13,20,984.19
2016,10,14,13,21,984.08
2016,10,14,13,22,984.05
2016,10,14,13,23,983.98
2016,10,14,13,24,984.05
2016,10,14,13,25,984.02
2016,10,14,13,26,983.88
2016,10,14,13,27,983.97
2016,10,14,13,28,983.95
2016,10,14,13,29,984.04
2016,10,14,13,30,984.22
2016,10,14,13,31,984.36
2016,10,14,13,32,984.39
2016,10,14,13,33,984.49
2016,10,14,13,34,984.39
2016,10,14,13,35,984.42
2016,10,14,13,36,984.39
2016,10,14,13,37,984.55
2016,10,14,13,38,984.32
2016,10,14,13,39,984.29
2016,10,14,13,40,984.42
2016,10,14,13,41,984.25
2016,10,14,13,42,984.32
2016,10,14,13,43,984.32
2016,10,14,13,44,984.39
2016,10,14,13,45,984.32
2016,10,14,13,46,984.42
2016,10,14,13,47,984.36
2016,10,14,13,48,984.36
2016,10,14,13,49,984.46
2016,10,14,13,50,984.56
2016,10,14,13,51,984.49
2016,10,14,13,52,984.46
2016,10,14,13,53,984.36
2016,10,14,13,54,984.39
2016,10,14,13,55,984.53
2016,10,14,13,56,984.63
2016,10,14,13,57,984.75
2016,10,14,13,58,984.76
2016,10,14,13,59,984.90
2016,10,14,14,00,984.63
2016,10,14,14,01,984.75
2016,10,14,14,02,984.69
2016,10,14,14,03,984.63
2016,10,14,14,04,984.76
2016,10,14,14,05,984.80
2016,10,14,14,06,984.86
2016,10,14,14,07,984.93
2016,10,14,14,08,984.73
2016,10,14,14,09,984.83
2016,10,14,14,10,984.83
2016,10,14,14,11,984.86
2016,10,14,14,12,984.93
2016,10,14,14,13,985.03
2016,10,14,14,14,984.97
2016,10,14,14,15,984.80
2016,10,14,14,16,984.80
2016,10,14,14,17,984.90
2016,10,14,14,18,984.90
2016,10,14,14,19,984.97
2016,10,14,14,20,984.90
2016,10,14,14,21,984.97
2016,10,14,14,22,984.97
2016,10,14,14,23,985.00
2016,10,14,14,24,984.93
2016,10,14,14,25,985.00
2016,10,14,14,26,984.93
2016,10,14,14,27,985.03
2016,10,14,14,28,984.97
2016,10,14,14,29,985.03
2016,10,14,14,30,985.10
2016,10,14,14,31,985.03
2016,10,14,14,32,985.00
2016,10,14,14,33,985.07
2016,10,14,14,34,984.93
2016,10,14,14,35,985.03
2016,10,14,14,36,985.13
2016,10,14,14,37,984.93
2016,10,14,14,38,985.17
2016,10,14,14,39,984.98
2016,10,14,14,40,985.03
2016,10,14,14,41,985.00
2016,10,14,14,42,984.83
2016,10,14,14,43,985.03
2016,10,14,14,44,985.13
2016,10,14,14,45,985.17
2016,10,14,14,46,985.10
2016,10,14,14,47,985.13
2016,10,14,14,48,985.30
2016,10,14,14,49,985.20
2016,10,14,14,50,985.27
2016,10,14,14,51,985.47
2016,10,14,14,52,985.37
2016,10,14,14,53,985.13
2016,10,14,14,54,985.24
2016,10,14,14,55,985.34
2016,10,14,14,56,985.24
2016,10,14,14,57,985.44
2016,10,14,14,58,985.25
2016,10,14,14,59,985.34
2016,10,14,15,00,985.41
2016,10,14,15,01,985.37
2016,10,14,15,02,985.34
2016,10,14,15,03,985.07
2016,10,14,15,04,985.27
2016,10,14,15,05,985.44
2016,10,14,15,06,985.51
2016,10,14,15,07,985.37
2016,10,14,15,08,985.64
2016,10,14,15,09,985.54
2016,10,14,15,10,985.54
2016,10,14,15,11,985.51
2016,10,14,15,12,985.85
2016,10,14,15,13,985.81
2016,10,14,15,14,985.71
2016,10,14,15,15,985.64
2016,10,14,15,16,985.87
2016,10,14,15,17,985.91
2016,10,14,15,18,985.98
2016,10,14,15,19,985.85
2016,10,14,15,20,985.81
2016,10,14,15,21,985.85
2016,10,14,15,22,985.71
2016,10,14,15,23,985.97
2016,10,14,15,24,985.95
2016,10,14,15,25,986.22
2016,10,14,15,26,986.32
2016,10,14,15,27,986.15
2016,10,14,15,28,986.29
2016,10,14,15,29,986.32
2016,10,14,15,30,986.59
2016,10,14,15,31,986.69
2016,10,14,15,32,986.56
2016,10,14,15,33,986.62
2016,10,14,15,34,986.76
2016,10,14,15,35,986.86
2016,10,14,15,36,986.77
2016,10,14,15,37,986.73
2016,10,14,15,38,986.96
2016,10,14,15,39,987.00
2016,10,14,15,40,987.16
2016,10,14,15,41,987.17
2016,10,14,15,42,987.13
2016,10,14,15,43,987.33
2016,10,14,15,44,987.44
2016,10,14,15,45,987.54
2016,10,14,15,46,987.67
2016,10,14,15,47,987.74
2016,10,14,15,48,987.87
2016,10,14,15,49,987.95
2016,10,14,15,50,987.91
2016,10,14,15,51,987.91
2016,10,14,15,52,987.84
2016,10,14,15,53,987.98
2016,10,14,15,54,988.15
2016,10,14,15,55,988.02
2016,10,14,15,56,987.98
2016,10,14,15,57,987.98
2016,10,14,15,58,987.98
2016,10,14,15,59,988.08
2016,10,14,16,00,988.15
2016,10,14,16,01,988.11
2016,10,14,16,02,988.18
2016,10,14,16,03,988.18
2016,10,14,16,04,988.18
2016,10,14,16,05,988.25
2016,10,14,16,06,988.28
2016,10,14,16,07,988.49
2016,10,14,16,08,988.49
2016,10,14,16,09,988.45
2016,10,14,16,10,988.55
2016,10,14,16,11,988.62
2016,10,14,16,12,988.75
2016,10,14,16,13,988.79
2016,10,14,16,14,988.83
2016,10,14,16,15,988.83
2016,10,14,16,16,988.89
2016,10,14,16,17,988.93
2016,10,14,16,18,988.93
2016,10,14,16,19,988.93
2016,10,14,16,20,988.89
2016,10,14,16,21,988.79
2016,10,14,16,22,988.79
2016,10,14,16,23,988.89
2016,10,14,16,24,988.86
2016,10,14,16,25,989.03
2016,10,14,16,26,988.96
2016,10,14,16,27,989.03
2016,10,14,16,28,989.10
2016,10,14,16,29,988.96
2016,10,14,16,30,989.13
2016,10,14,16,31,989.20
2016,10,14,16,32,989.20
2016,10,14,16,33,989.27
2016,10,14,16,34,989.30
2016,10,14,16,35,989.33
2016,10,14,16,36,989.37